Time,TemperatureF,DewpointF,PressureIn,WindDirection,WindDirectionDegrees,WindSpeedMPH,WindSpeedGustMPH,Humidity,HourlyPrecipIn,Conditions,Clouds,dailyrainin,SoftwareType,DateUTC
2013-04-29 00:00:00,56.0,54.3,29.83,WSW,248,2.0,3.0,94,0.00,,SKC,0.52,VWS V14.01,2013-04-29 04:00:00,
2013-04-29 00:01:00,56.0,54.3,29.83,WSW,248,1.0,3.0,94,0.00,,SKC,0.52,VWS V14.01,2013-04-29 04:01:00,
2013-04-29 00:02:00,56.0,54.3,29.83,WSW,248,0.0,2.0,94,0.00,,SKC,0.52,VWS V14.01,2013-04-29 04:02:00,
2013-04-29 00:08:00,55.9,54.2,29.83,SW,233,2.0,3.0,94,0.00,,SKC,0.00,VWS V14.01,2013-04-29 04:08:00,
2013-04-29 00:13:00,55.9,54.2,29.83,SW,233,1.0,2.0,94,0.00,,SKC,0.00,VWS V14.01,2013-04-29 04:13:00,
2013-04-29 00:18:00,55.8,54.1,29.83,SW,233,1.0,3.0,94,0.00,,SKC,0.00,VWS V14.01,2013-04-29 04:18:00,
2013-04-29 00:23:00,55.9,54.2,29.83,SW,233,1.0,2.0,94,0.00,,SKC,0.00,VWS V14.01,2013-04-29 04:23:00,
2013-04-29 00:28:00,55.9,54.2,29.83,SW,236,4.0,5.0,94,0.00,,SKC,0.00,VWS V14.01,2013-04-29 04:28:00,
2013-04-29 00:30:00,56.0,54.3,29.83,SW,234,5.0,5.0,94,0.00,,SKC,0.00,VWS V14.01,2013-04-29 04:30:00,
2013-04-29 00:33:00,56.0,54.3,29.83,SW,234,4.0,5.0,94,0.00,,SKC,0.00,VWS V14.01,2013-04-29 04:33:00,
2013-04-29 00:38:00,56.1,54.4,29.83,SW,235,3.0,4.0,94,0.00,,SKC,0.00,VWS V14.01,2013-04-29 04:38:00,
2013-04-29 00:43:00,56.2,54.5,29.83,SW,236,2.0,3.0,94,0.00,,SKC,0.00,VWS V14.01,2013-04-29 04:43:00,
2013-04-29 00:48:00,56.2,54.5,29.83,SW,236,1.0,3.0,94,0.00,,SKC,0.00,VWS V14.01,2013-04-29 04:48:00,
2013-04-29 00:53:00,56.2,54.5,29.83,SW,236,3.0,4.0,94,0.00,,SKC,0.00,VWS V14.01,2013-04-29 04:53:00,
2013-04-29 00:58:00,56.2,54.8,29.83,SW,236,4.0,5.0,95,0.00,,SKC,0.00,VWS V14.01,2013-04-29 04:58:00,
2013-04-29 01:00:00,56.2,54.8,29.83,SW,233,1.0,3.0,95,0.00,,SKC,0.00,VWS V14.01,2013-04-29 05:00:00,
2013-04-29 01:03:00,56.2,54.8,29.83,SW,233,1.0,3.0,95,0.00,,SKC,0.00,VWS V14.01,2013-04-29 05:03:00,
2013-04-29 01:08:00,56.1,54.7,29.83,SW,223,2.0,3.0,95,0.00,,SKC,0.00,VWS V14.01,2013-04-29 05:08:00,
2013-04-29 01:13:00,56.1,54.7,29.83,SW,227,2.0,4.0,95,0.00,,SKC,0.00,VWS V14.01,2013-04-29 05:13:00,
2013-04-29 01:18:00,56.1,54.7,29.83,WSW,244,2.0,4.0,95,0.00,,SKC,0.00,VWS V14.01,2013-04-29 05:18:00,
2013-04-29 01:23:00,56.0,54.6,29.83,WSW,248,3.0,5.0,95,0.00,,SKC,0.00,VWS V14.01,2013-04-29 05:23:00,
2013-04-29 01:28:00,56.0,54.6,29.83,WSW,238,5.0,6.0,95,0.00,,SKC,0.00,VWS V14.01,2013-04-29 05:28:00,
2013-04-29 01:30:00,56.0,54.6,29.83,WSW,241,4.0,4.0,95,0.00,,SKC,0.00,VWS V14.01,2013-04-29 05:30:00,
2013-04-29 01:33:00,56.0,54.6,29.83,WSW,240,3.0,4.0,95,0.00,,SKC,0.00,VWS V14.01,2013-04-29 05:33:00,
2013-04-29 01:38:00,56.0,54.6,29.83,WSW,254,3.0,6.0,95,0.00,,SKC,0.00,VWS V14.01,2013-04-29 05:38:00,
2013-04-29 01:43:00,55.9,54.5,29.83,WSW,246,3.0,5.0,95,0.00,,SKC,0.00,VWS V14.01,2013-04-29 05:43:00,
2013-04-29 01:48:00,55.8,54.4,29.84,WSW,256,5.0,5.0,95,0.00,,SKC,0.00,VWS V14.01,2013-04-29 05:48:00,
2013-04-29 01:53:00,55.8,54.4,29.84,WSW,240,3.0,5.0,95,0.00,,SKC,0.00,VWS V14.01,2013-04-29 05:53:00,
2013-04-29 01:58:00,55.7,54.3,29.84,SW,229,4.0,5.0,95,0.00,,SKC,0.00,VWS V14.01,2013-04-29 05:58:00,
2013-04-29 02:00:00,55.7,54.3,29.84,WSW,241,4.0,6.0,95,0.00,,SKC,0.00,VWS V14.01,2013-04-29 06:00:00,
2013-04-29 02:03:00,55.7,54.3,29.84,WSW,244,3.0,6.0,95,0.00,,SKC,0.00,VWS V14.01,2013-04-29 06:03:00,
2013-04-29 02:08:00,55.6,54.2,29.84,WSW,252,6.0,7.0,95,0.00,,SKC,0.00,VWS V14.01,2013-04-29 06:08:00,
2013-04-29 02:13:00,55.6,54.2,29.84,SW,226,7.0,7.0,95,0.00,,SKC,0.00,VWS V14.01,2013-04-29 06:13:00,
2013-04-29 02:18:00,55.6,54.2,29.84,WSW,244,5.0,7.0,95,0.00,,SKC,0.00,VWS V14.01,2013-04-29 06:18:00,
2013-04-29 02:23:00,55.6,54.2,29.84,WSW,254,5.0,5.0,95,0.00,,SKC,0.00,VWS V14.01,2013-04-29 06:23:00,
2013-04-29 02:28:00,55.5,54.1,29.84,WSW,244,6.0,8.0,95,0.00,,SKC,0.00,VWS V14.01,2013-04-29 06:28:00,
2013-04-29 02:30:00,55.4,54.0,29.84,WSW,256,4.0,6.0,95,0.00,,SKC,0.00,VWS V14.01,2013-04-29 06:30:00,
2013-04-29 02:33:00,55.4,54.0,29.84,WSW,247,6.0,6.0,95,0.00,,SKC,0.00,VWS V14.01,2013-04-29 06:33:00,
2013-04-29 02:38:00,55.3,53.9,29.84,WSW,250,6.0,7.0,95,0.00,,SKC,0.00,VWS V14.01,2013-04-29 06:38:00,
2013-04-29 02:43:00,55.3,53.9,29.84,WSW,238,3.0,6.0,95,0.00,,SKC,0.00,VWS V14.01,2013-04-29 06:43:00,
2013-04-29 02:48:00,55.2,53.8,29.84,WSW,250,6.0,6.0,95,0.00,,SKC,0.00,VWS V14.01,2013-04-29 06:48:00,
2013-04-29 02:53:00,55.1,53.7,29.84,WSW,246,5.0,6.0,95,0.00,,SKC,0.00,VWS V14.01,2013-04-29 06:53:00,
2013-04-29 02:58:00,55.1,53.7,29.84,West,261,5.0,7.0,95,0.00,,SKC,0.00,VWS V14.01,2013-04-29 06:58:00,
2013-04-29 03:00:00,55.0,53.6,29.84,WSW,252,4.0,4.0,95,0.00,,SKC,0.00,VWS V14.01,2013-04-29 07:00:00,
2013-04-29 03:03:00,55.0,53.6,29.84,WSW,248,3.0,4.0,95,0.00,,SKC,0.00,VWS V14.01,2013-04-29 07:03:00,
2013-04-29 03:08:00,54.8,53.1,29.84,WSW,248,3.0,4.0,94,0.00,,SKC,0.00,VWS V14.01,2013-04-29 07:08:00,
2013-04-29 03:13:00,54.6,52.9,29.84,WSW,240,2.0,5.0,94,0.00,,SKC,0.00,VWS V14.01,2013-04-29 07:13:00,
2013-04-29 03:18:00,54.4,53.0,29.84,WSW,238,2.0,4.0,95,0.00,,SKC,0.00,VWS V14.01,2013-04-29 07:18:00,
2013-04-29 03:23:00,54.2,52.8,29.84,WSW,246,3.0,5.0,95,0.00,,SKC,0.00,VWS V14.01,2013-04-29 07:23:00,
2013-04-29 03:28:00,54.0,52.3,29.84,WSW,250,2.0,4.0,94,0.00,,SKC,0.00,VWS V14.01,2013-04-29 07:28:00,
2013-04-29 03:30:00,53.9,52.2,29.84,WSW,244,4.0,4.0,94,0.00,,SKC,0.00,VWS V14.01,2013-04-29 07:30:00,
2013-04-29 03:33:00,53.9,52.2,29.84,WSW,244,4.0,4.0,94,0.00,,SKC,0.00,VWS V14.01,2013-04-29 07:33:00,
2013-04-29 03:38:00,53.8,52.4,29.84,WSW,247,0.0,2.0,95,0.00,,SKC,0.00,VWS V14.01,2013-04-29 07:38:00,
2013-04-29 03:43:00,53.6,51.9,29.84,WSW,247,0.0,1.0,94,0.00,,SKC,0.00,VWS V14.01,2013-04-29 07:43:00,
2013-04-29 03:49:00,53.6,52.2,29.84,SW,223,2.0,3.0,95,0.00,,SKC,0.00,VWS V14.01,2013-04-29 07:49:00,
2013-04-29 03:54:00,53.4,51.7,29.84,SW,225,0.0,2.0,94,0.00,,SKC,0.00,VWS V14.01,2013-04-29 07:54:00,
2013-04-29 03:59:00,53.2,51.5,29.84,SW,225,1.0,3.0,94,0.01,,SKC,0.01,VWS V14.01,2013-04-29 07:59:00,
2013-04-29 04:00:00,53.0,51.3,29.84,SW,225,0.0,1.0,94,0.01,,SKC,0.01,VWS V14.01,2013-04-29 08:00:00,
2013-04-29 04:04:00,53.0,51.6,29.84,SW,225,0.0,1.0,95,0.01,,SKC,0.01,VWS V14.01,2013-04-29 08:04:00,
2013-04-29 04:09:00,53.0,51.3,29.84,SW,225,0.0,1.0,94,0.01,,SKC,0.01,VWS V14.01,2013-04-29 08:09:00,
2013-04-29 04:14:00,53.0,51.3,29.84,SW,225,1.0,1.0,94,0.01,,SKC,0.01,VWS V14.01,2013-04-29 08:14:00,
2013-04-29 04:19:00,52.8,51.1,29.85,SW,225,1.0,1.0,94,0.01,,SKC,0.01,VWS V14.01,2013-04-29 08:19:00,
2013-04-29 04:24:00,52.7,51.0,29.85,SW,225,1.0,1.0,94,0.01,,SKC,0.01,VWS V14.01,2013-04-29 08:24:00,
2013-04-29 04:29:00,52.7,51.0,29.85,SW,225,2.0,2.0,94,0.01,,SKC,0.01,VWS V14.01,2013-04-29 08:29:00,
2013-04-29 04:30:00,52.7,51.3,29.85,SW,225,2.0,3.0,95,0.01,,SKC,0.01,VWS V14.01,2013-04-29 08:30:00,
2013-04-29 04:34:00,52.8,51.4,29.85,SW,225,2.0,3.0,95,0.01,,SKC,0.01,VWS V14.01,2013-04-29 08:34:00,
2013-04-29 04:39:00,52.9,51.5,29.85,WSW,251,0.0,4.0,95,0.01,,SKC,0.01,VWS V14.01,2013-04-29 08:39:00,
2013-04-29 04:44:00,53.0,51.6,29.85,WSW,252,0.0,2.0,95,0.01,,SKC,0.01,VWS V14.01,2013-04-29 08:44:00,
2013-04-29 04:49:00,53.0,51.6,29.85,WSW,249,0.0,1.0,95,0.01,,SKC,0.01,VWS V14.01,2013-04-29 08:49:00,
2013-04-29 04:54:00,53.0,51.6,29.85,WSW,249,1.0,2.0,95,0.01,,SKC,0.01,VWS V14.01,2013-04-29 08:54:00,
2013-04-29 04:59:00,53.0,51.6,29.86,WSW,249,3.0,4.0,95,0.01,,SKC,0.01,VWS V14.01,2013-04-29 08:59:00,
2013-04-29 05:00:00,53.0,51.6,29.86,WSW,247,2.0,3.0,95,0.01,,SKC,0.01,VWS V14.01,2013-04-29 09:00:00,
2013-04-29 05:04:00,53.1,51.7,29.86,WSW,247,3.0,3.0,95,0.00,,SKC,0.01,VWS V14.01,2013-04-29 09:04:00,
2013-04-29 05:09:00,53.1,51.7,29.86,WSW,250,2.0,2.0,95,0.00,,SKC,0.01,VWS V14.01,2013-04-29 09:09:00,
2013-04-29 05:14:00,53.2,51.8,29.86,WSW,250,2.0,2.0,95,0.00,,SKC,0.01,VWS V14.01,2013-04-29 09:14:00,
2013-04-29 05:19:00,53.2,51.8,29.86,WSW,250,3.0,3.0,95,0.00,,SKC,0.01,VWS V14.01,2013-04-29 09:19:00,
2013-04-29 05:24:00,53.2,51.8,29.86,WSW,250,2.0,4.0,95,0.00,,SKC,0.01,VWS V14.01,2013-04-29 09:24:00,
2013-04-29 05:29:00,53.3,51.9,29.86,WSW,253,1.0,3.0,95,0.00,,SKC,0.01,VWS V14.01,2013-04-29 09:29:00,
2013-04-29 05:30:00,53.3,51.9,29.86,WSW,253,1.0,4.0,95,0.00,,SKC,0.01,VWS V14.01,2013-04-29 09:30:00,
2013-04-29 05:34:00,53.3,51.9,29.86,WSW,253,2.0,3.0,95,0.00,,SKC,0.01,VWS V14.01,2013-04-29 09:34:00,
2013-04-29 05:39:00,53.3,51.9,29.86,WSW,246,3.0,3.0,95,0.00,,SKC,0.01,VWS V14.01,2013-04-29 09:39:00,
2013-04-29 05:44:00,53.4,52.0,29.87,WSW,243,0.0,1.0,95,0.00,,SKC,0.01,VWS V14.01,2013-04-29 09:44:00,
2013-04-29 05:49:00,53.5,52.1,29.87,SW,236,0.0,2.0,95,0.00,,SKC,0.01,VWS V14.01,2013-04-29 09:49:00,
2013-04-29 05:54:00,53.5,52.1,29.87,SW,236,2.0,3.0,95,0.00,,SKC,0.01,VWS V14.01,2013-04-29 09:54:00,
2013-04-29 05:59:00,53.5,52.1,29.87,WSW,243,1.0,3.0,95,0.00,,SKC,0.01,VWS V14.01,2013-04-29 09:59:00,
2013-04-29 06:00:00,53.5,52.1,29.88,WSW,243,2.0,2.0,95,0.00,,SKC,0.01,VWS V14.01,2013-04-29 10:00:00,
2013-04-29 06:04:00,53.6,52.2,29.88,WSW,243,4.0,4.0,95,0.00,,SKC,0.01,VWS V14.01,2013-04-29 10:04:00,
2013-04-29 06:09:00,53.6,52.2,29.88,WSW,243,0.0,3.0,95,0.00,,SKC,0.01,VWS V14.01,2013-04-29 10:09:00,
2013-04-29 06:14:00,53.6,52.2,29.88,WSW,243,0.0,0.0,95,0.00,,SKC,0.01,VWS V14.01,2013-04-29 10:14:00,
2013-04-29 06:19:00,53.6,52.2,29.88,WSW,243,0.0,0.0,95,0.00,,SKC,0.01,VWS V14.01,2013-04-29 10:19:00,
2013-04-29 06:24:00,53.6,52.2,29.88,WSW,243,0.0,0.0,95,0.00,,SKC,0.01,VWS V14.01,2013-04-29 10:24:00,
2013-04-29 06:29:00,53.6,52.2,29.88,WSW,243,0.0,0.0,95,0.00,,SKC,0.01,VWS V14.01,2013-04-29 10:29:00,
2013-04-29 06:30:00,53.5,52.1,29.88,WSW,243,0.0,0.0,95,0.00,,SKC,0.01,VWS V14.01,2013-04-29 10:30:00,
2013-04-29 06:34:00,53.5,52.1,29.88,WSW,243,2.0,2.0,95,0.00,,SKC,0.01,VWS V14.01,2013-04-29 10:34:00,
2013-04-29 06:40:00,53.6,52.2,29.88,WSW,243,2.0,2.0,95,0.00,,SKC,0.01,VWS V14.01,2013-04-29 10:40:00,
2013-04-29 06:45:00,53.6,52.2,29.88,WSW,243,3.0,3.0,95,0.00,,SKC,0.01,VWS V14.01,2013-04-29 10:45:00,
2013-04-29 06:50:00,53.6,52.2,29.88,WSW,243,2.0,2.0,95,0.00,,SKC,0.01,VWS V14.01,2013-04-29 10:50:00,
2013-04-29 06:55:00,53.7,52.3,29.88,WSW,243,2.0,2.0,95,0.00,,SKC,0.01,VWS V14.01,2013-04-29 10:55:00,
2013-04-29 07:00:00,53.7,52.3,29.89,SW,236,4.0,4.0,95,0.00,,SKC,0.01,VWS V14.01,2013-04-29 11:00:00,
2013-04-29 07:05:00,53.8,52.4,29.89,SW,229,1.0,3.0,95,0.00,,SKC,0.01,VWS V14.01,2013-04-29 11:05:00,
2013-04-29 07:10:00,53.9,52.5,29.89,SW,229,1.0,2.0,95,0.00,,SKC,0.01,VWS V14.01,2013-04-29 11:10:00,
2013-04-29 07:15:00,53.9,52.5,29.89,SW,223,1.0,2.0,95,0.00,,SKC,0.01,VWS V14.01,2013-04-29 11:15:00,
2013-04-29 07:20:00,53.9,52.5,29.89,SW,223,0.0,0.0,95,0.00,,SKC,0.01,VWS V14.01,2013-04-29 11:20:00,
2013-04-29 07:25:00,53.8,52.4,29.90,SW,223,0.0,2.0,95,0.00,,SKC,0.01,VWS V14.01,2013-04-29 11:25:00,
2013-04-29 07:30:00,53.8,52.4,29.90,SW,223,0.0,2.0,95,0.00,,SKC,0.01,VWS V14.01,2013-04-29 11:30:00,
2013-04-29 07:35:00,53.9,52.5,29.90,SW,223,0.0,2.0,95,0.00,,SKC,0.01,VWS V14.01,2013-04-29 11:35:00,
2013-04-29 07:40:00,53.9,52.5,29.90,SW,223,0.0,3.0,95,0.00,,SKC,0.01,VWS V14.01,2013-04-29 11:40:00,
2013-04-29 07:45:00,54.0,52.6,29.90,WSW,241,5.0,5.0,95,0.00,,SKC,0.01,VWS V14.01,2013-04-29 11:45:00,
2013-04-29 07:50:00,54.1,52.7,29.90,SW,229,2.0,4.0,95,0.00,,SKC,0.01,VWS V14.01,2013-04-29 11:50:00,
2013-04-29 07:55:00,54.2,52.8,29.91,WSW,238,3.0,4.0,95,0.00,,SKC,0.01,VWS V14.01,2013-04-29 11:55:00,
2013-04-29 08:00:00,54.4,53.0,29.91,SW,223,4.0,4.0,95,0.00,,SKC,0.01,VWS V14.01,2013-04-29 12:00:00,
2013-04-29 08:05:00,54.5,53.1,29.91,SW,232,1.0,3.0,95,0.00,,SKC,0.01,VWS V14.01,2013-04-29 12:05:00,
2013-04-29 08:10:00,54.6,53.2,29.91,WSW,251,4.0,4.0,95,0.00,,SKC,0.01,VWS V14.01,2013-04-29 12:10:00,
2013-04-29 08:15:00,54.8,53.4,29.91,SW,233,2.0,4.0,95,0.00,,SKC,0.01,VWS V14.01,2013-04-29 12:15:00,
2013-04-29 08:20:00,55.0,53.6,29.91,WSW,242,3.0,5.0,95,0.00,,SKC,0.01,VWS V14.01,2013-04-29 12:20:00,
2013-04-29 08:25:00,55.1,53.7,29.91,WSW,237,3.0,3.0,95,0.00,,SKC,0.01,VWS V14.01,2013-04-29 12:25:00,
2013-04-29 08:30:00,55.2,53.8,29.91,SW,236,4.0,4.0,95,0.00,,SKC,0.01,VWS V14.01,2013-04-29 12:30:00,
2013-04-29 08:35:00,55.2,53.8,29.92,SW,232,1.0,3.0,95,0.00,,SKC,0.01,VWS V14.01,2013-04-29 12:35:00,
2013-04-29 08:40:00,55.3,53.9,29.92,WSW,254,1.0,4.0,95,0.00,,SKC,0.01,VWS V14.01,2013-04-29 12:40:00,
2013-04-29 08:45:00,55.3,53.9,29.92,WSW,250,2.0,3.0,95,0.00,,SKC,0.01,VWS V14.01,2013-04-29 12:45:00,
2013-04-29 08:50:00,55.3,53.9,29.92,WSW,254,0.0,3.0,95,0.00,,SKC,0.01,VWS V14.01,2013-04-29 12:50:00,
2013-04-29 08:55:00,55.3,53.9,29.92,WSW,240,3.0,5.0,95,0.00,,SKC,0.01,VWS V14.01,2013-04-29 12:55:00,
2013-04-29 09:00:00,55.4,54.0,29.92,WSW,248,3.0,4.0,95,0.00,,SKC,0.01,VWS V14.01,2013-04-29 13:00:00,
2013-04-29 09:06:00,55.5,54.1,29.92,SW,236,4.0,4.0,95,0.00,,SKC,0.01,VWS V14.01,2013-04-29 13:06:00,
2013-04-29 09:11:00,55.7,54.3,29.92,WSW,250,1.0,4.0,95,0.00,,SKC,0.01,VWS V14.01,2013-04-29 13:11:00,
2013-04-29 09:16:00,55.9,54.5,29.92,WSW,239,2.0,3.0,95,0.00,,SKC,0.01,VWS V14.01,2013-04-29 13:16:00,
2013-04-29 09:21:00,56.0,54.6,29.92,WSW,258,4.0,5.0,95,0.00,,SKC,0.01,VWS V14.01,2013-04-29 13:21:00,
2013-04-29 09:26:00,56.2,54.8,29.92,SW,231,3.0,5.0,95,0.00,,SKC,0.01,VWS V14.01,2013-04-29 13:26:00,
2013-04-29 09:30:00,56.4,55.0,29.92,SW,235,4.0,6.0,95,0.00,,SKC,0.01,VWS V14.01,2013-04-29 13:30:00,
2013-04-29 09:31:00,56.3,54.9,29.92,WSW,250,2.0,4.0,95,0.00,,SKC,0.01,VWS V14.01,2013-04-29 13:31:00,
2013-04-29 09:36:00,56.4,55.0,29.92,WSW,246,4.0,6.0,95,0.00,,SKC,0.01,VWS V14.01,2013-04-29 13:36:00,
2013-04-29 09:41:00,56.5,55.1,29.92,West,259,6.0,6.0,95,0.00,,SKC,0.01,VWS V14.01,2013-04-29 13:41:00,
2013-04-29 09:46:00,56.8,55.4,29.92,WSW,249,6.0,7.0,95,0.00,,SKC,0.01,VWS V14.01,2013-04-29 13:46:00,
2013-04-29 09:51:00,56.8,55.4,29.92,NW,306,3.0,8.0,95,0.00,,SKC,0.01,VWS V14.01,2013-04-29 13:51:00,
2013-04-29 09:56:00,56.6,55.2,29.92,WNW,290,8.0,8.0,95,0.00,,SKC,0.01,VWS V14.01,2013-04-29 13:56:00,
2013-04-29 10:00:00,56.8,55.4,29.92,WNW,284,1.0,7.0,95,0.00,,SKC,0.01,VWS V14.01,2013-04-29 14:00:00,
2013-04-29 10:01:00,56.8,55.4,29.92,West,265,7.0,7.0,95,0.00,,SKC,0.01,VWS V14.01,2013-04-29 14:01:00,
2013-04-29 10:06:00,56.8,55.4,29.92,WNW,293,3.0,4.0,95,0.00,,SKC,0.01,VWS V14.01,2013-04-29 14:06:00,
2013-04-29 10:11:00,57.0,55.6,29.92,WSW,242,3.0,4.0,95,0.00,,SKC,0.01,VWS V14.01,2013-04-29 14:11:00,
2013-04-29 10:16:00,57.1,55.7,29.92,WNW,300,1.0,3.0,95,0.00,,SKC,0.01,VWS V14.01,2013-04-29 14:16:00,
2013-04-29 10:21:00,57.3,55.9,29.92,West,280,3.0,4.0,95,0.00,,SKC,0.01,VWS V14.01,2013-04-29 14:21:00,
2013-04-29 10:26:00,57.4,55.7,29.92,West,269,3.0,5.0,94,0.00,,SKC,0.01,VWS V14.01,2013-04-29 14:26:00,
2013-04-29 10:30:00,57.6,55.9,29.92,NW,306,4.0,4.0,94,0.00,,SKC,0.01,VWS V14.01,2013-04-29 14:30:00,
2013-04-29 10:31:00,57.5,56.1,29.92,WNW,288,1.0,5.0,95,0.00,,SKC,0.01,VWS V14.01,2013-04-29 14:31:00,
2013-04-29 10:36:00,57.7,56.0,29.92,NW,315,2.0,4.0,94,0.00,,SKC,0.01,VWS V14.01,2013-04-29 14:36:00,
2013-04-29 10:41:00,57.8,56.1,29.92,WNW,292,2.0,4.0,94,0.00,,SKC,0.01,VWS V14.01,2013-04-29 14:41:00,
2013-04-29 10:46:00,58.3,56.6,29.92,West,272,2.0,3.0,94,0.00,,SKC,0.01,VWS V14.01,2013-04-29 14:46:00,
2013-04-29 10:51:00,59.0,57.3,29.92,WNW,302,4.0,4.0,94,0.00,,SKC,0.01,VWS V14.01,2013-04-29 14:51:00,
2013-04-29 10:56:00,59.4,57.7,29.93,WSW,240,6.0,7.0,94,0.00,,SKC,0.01,VWS V14.01,2013-04-29 14:56:00,
2013-04-29 11:00:00,60.3,58.3,29.93,West,268,0.0,1.0,93,0.00,,SKC,0.01,VWS V14.01,2013-04-29 15:00:00,
2013-04-29 11:01:00,60.1,58.1,29.93,West,268,1.0,1.0,93,0.00,,SKC,0.01,VWS V14.01,2013-04-29 15:01:00,
2013-04-29 11:06:00,60.3,58.0,29.93,West,260,3.0,6.0,92,0.00,,SKC,0.01,VWS V14.01,2013-04-29 15:06:00,
2013-04-29 11:11:00,60.2,57.6,29.93,NW,318,3.0,6.0,91,0.00,,SKC,0.01,VWS V14.01,2013-04-29 15:11:00,
2013-04-29 11:16:00,60.3,57.4,29.93,NW,324,3.0,4.0,90,0.00,,SKC,0.01,VWS V14.01,2013-04-29 15:16:00,
2013-04-29 11:21:00,60.7,57.8,29.93,NW,319,3.0,3.0,90,0.00,,SKC,0.01,VWS V14.01,2013-04-29 15:21:00,
2013-04-29 11:26:00,61.0,57.4,29.93,NW,306,2.0,4.0,88,0.00,,SKC,0.01,VWS V14.01,2013-04-29 15:26:00,
2013-04-29 11:30:00,61.8,57.9,29.93,WSW,246,7.0,8.0,87,0.00,,SKC,0.01,VWS V14.01,2013-04-29 15:30:00,
2013-04-29 11:31:00,61.6,58.0,29.93,West,259,6.0,7.0,88,0.00,,SKC,0.01,VWS V14.01,2013-04-29 15:31:00,
2013-04-29 11:36:00,62.1,57.9,29.93,WNW,288,3.0,6.0,86,0.00,,SKC,0.01,VWS V14.01,2013-04-29 15:36:00,
2013-04-29 11:41:00,62.3,57.0,29.93,WNW,293,3.0,7.0,84,0.00,,,0.01,weatherlink.com 1.10,2013-04-29 15:41:00,
2013-04-29 11:46:00,62.6,58.0,29.92,WSW,254,2.0,6.0,85,0.00,,SKC,0.01,VWS V14.01,2013-04-29 15:46:00,
2013-04-29 11:51:00,62.7,57.8,29.93,WSW,240,2.0,5.0,84,0.00,,SKC,0.01,VWS V14.01,2013-04-29 15:51:00,
2013-04-29 11:56:00,63.0,58.4,29.92,WSW,248,3.0,5.0,85,0.00,,SKC,0.01,VWS V14.01,2013-04-29 15:56:00,
2013-04-29 12:00:00,63.9,59.3,29.93,SW,236,2.0,5.0,85,0.00,,SKC,0.01,VWS V14.01,2013-04-29 16:00:00,
2013-04-29 12:01:00,63.6,59.0,29.92,WSW,246,5.0,6.0,85,0.00,,SKC,0.01,VWS V14.01,2013-04-29 16:01:00,
2013-04-29 12:06:00,64.7,59.4,29.93,WSW,254,0.0,7.0,83,0.00,,SKC,0.01,VWS V14.01,2013-04-29 16:06:00,
2013-04-29 12:11:00,64.9,58.2,29.93,WSW,243,4.0,7.0,79,0.00,,SKC,0.01,VWS V14.01,2013-04-29 16:11:00,
2013-04-29 12:16:00,64.9,58.2,29.93,WSW,244,4.0,5.0,79,0.00,,SKC,0.01,VWS V14.01,2013-04-29 16:16:00,
2013-04-29 12:21:00,64.5,58.2,29.93,WNW,286,0.0,2.0,80,0.00,,SKC,0.01,VWS V14.01,2013-04-29 16:21:00,
2013-04-29 12:26:00,64.5,58.2,29.93,West,270,1.0,3.0,80,0.00,,SKC,0.01,VWS V14.01,2013-04-29 16:26:00,
2013-04-29 12:30:00,64.6,58.0,29.93,West,274,2.0,2.0,79,0.00,,SKC,0.01,VWS V14.01,2013-04-29 16:30:00,
2013-04-29 12:31:00,64.6,58.0,29.93,West,277,0.0,2.0,79,0.00,,SKC,0.01,VWS V14.01,2013-04-29 16:31:00,
2013-04-29 12:36:00,64.7,58.0,29.93,WSW,244,0.0,5.0,79,0.00,,SKC,0.01,VWS V14.01,2013-04-29 16:36:00,
2013-04-29 12:42:00,65.2,58.9,29.93,WSW,243,5.0,6.0,80,0.00,,SKC,0.01,VWS V14.01,2013-04-29 16:42:00,
2013-04-29 12:47:00,65.6,58.2,29.93,West,265,3.0,5.0,77,0.00,,SKC,0.01,VWS V14.01,2013-04-29 16:47:00,
2013-04-29 12:52:00,65.7,58.7,29.93,West,277,5.0,5.0,78,0.00,,SKC,0.01,VWS V14.01,2013-04-29 16:52:00,
2013-04-29 12:57:00,65.8,58.4,29.92,WSW,243,5.0,5.0,77,0.00,,SKC,0.01,VWS V14.01,2013-04-29 16:57:00,
2013-04-29 13:00:00,65.8,58.4,29.93,WSW,254,3.0,5.0,77,0.00,,SKC,0.01,VWS V14.01,2013-04-29 17:00:00,
2013-04-29 13:02:00,65.8,58.4,29.93,WSW,252,4.0,5.0,77,0.00,,SKC,0.01,VWS V14.01,2013-04-29 17:02:00,
2013-04-29 13:07:00,65.9,58.5,29.92,WSW,254,6.0,9.0,77,0.00,,SKC,0.01,VWS V14.01,2013-04-29 17:07:00,
2013-04-29 13:12:00,65.7,58.3,29.92,WSW,257,0.0,2.0,77,0.00,,SKC,0.01,VWS V14.01,2013-04-29 17:12:00,
2013-04-29 13:17:00,65.6,57.8,29.92,WSW,248,4.0,5.0,76,0.00,,SKC,0.01,VWS V14.01,2013-04-29 17:17:00,
2013-04-29 13:22:00,65.8,58.4,29.92,WSW,245,9.0,9.0,77,0.00,,SKC,0.01,VWS V14.01,2013-04-29 17:22:00,
2013-04-29 13:27:00,65.8,58.4,29.92,WSW,252,6.0,9.0,77,0.00,,SKC,0.01,VWS V14.01,2013-04-29 17:27:00,
2013-04-29 13:30:00,65.8,58.0,29.92,WNW,287,2.0,5.0,76,0.00,,SKC,0.01,VWS V14.01,2013-04-29 17:30:00,
2013-04-29 13:32:00,65.8,58.4,29.92,WNW,284,3.0,6.0,77,0.00,,SKC,0.01,VWS V14.01,2013-04-29 17:32:00,
2013-04-29 13:37:00,66.1,58.3,29.91,WSW,250,6.0,6.0,76,0.00,,SKC,0.01,VWS V14.01,2013-04-29 17:37:00,
2013-04-29 13:42:00,66.5,58.7,29.91,SW,226,4.0,6.0,76,0.00,,SKC,0.01,VWS V14.01,2013-04-29 17:42:00,
2013-04-29 13:47:00,66.1,57.6,29.91,West,260,4.0,7.0,74,0.00,,SKC,0.01,VWS V14.01,2013-04-29 17:47:00,
2013-04-29 13:52:00,66.0,57.9,29.91,WSW,254,2.0,6.0,75,0.00,,SKC,0.01,VWS V14.01,2013-04-29 17:52:00,
2013-04-29 13:57:00,66.1,57.6,29.91,West,265,0.0,5.0,74,0.00,,SKC,0.01,VWS V14.01,2013-04-29 17:57:00,
2013-04-29 14:00:00,66.3,58.2,29.91,WNW,284,2.0,6.0,75,0.00,,SKC,0.01,VWS V14.01,2013-04-29 18:00:00,
2013-04-29 14:02:00,66.3,58.2,29.91,WNW,282,4.0,6.0,75,0.00,,SKC,0.01,VWS V14.01,2013-04-29 18:02:00,
2013-04-29 14:07:00,66.6,58.4,29.91,WSW,247,6.0,7.0,75,0.00,,SKC,0.01,VWS V14.01,2013-04-29 18:07:00,
2013-04-29 14:12:00,67.0,58.5,29.91,West,263,1.0,5.0,74,0.00,,SKC,0.01,VWS V14.01,2013-04-29 18:12:00,
2013-04-29 14:17:00,67.3,58.0,29.91,WSW,244,8.0,8.0,72,0.00,,SKC,0.01,VWS V14.01,2013-04-29 18:17:00,
2013-04-29 14:22:00,67.4,57.7,29.91,SSW,212,5.0,8.0,71,0.00,,SKC,0.01,VWS V14.01,2013-04-29 18:22:00,
2013-04-29 14:27:00,66.7,58.5,29.91,WSW,243,5.0,8.0,75,0.00,,SKC,0.01,VWS V14.01,2013-04-29 18:27:00,
2013-04-29 14:30:00,67.2,58.6,29.91,SW,215,5.0,7.0,74,0.00,,SKC,0.01,VWS V14.01,2013-04-29 18:30:00,
2013-04-29 14:32:00,67.2,58.6,29.91,SW,225,4.0,7.0,74,0.00,,SKC,0.01,VWS V14.01,2013-04-29 18:32:00,
2013-04-29 14:37:00,67.0,57.3,29.90,West,262,3.0,5.0,71,0.00,,SKC,0.01,VWS V14.01,2013-04-29 18:37:00,
2013-04-29 14:42:00,67.1,57.8,29.90,West,260,2.0,4.0,72,0.00,,SKC,0.01,VWS V14.01,2013-04-29 18:42:00,
2013-04-29 14:47:00,67.3,58.4,29.90,WSW,248,0.0,4.0,73,0.00,,SKC,0.01,VWS V14.01,2013-04-29 18:47:00,
2013-04-29 14:52:00,67.6,58.3,29.90,SSW,211,5.0,7.0,72,0.00,,SKC,0.01,VWS V14.01,2013-04-29 18:52:00,
2013-04-29 14:57:00,66.8,57.1,29.90,SW,233,2.0,4.0,71,0.00,,SKC,0.01,VWS V14.01,2013-04-29 18:57:00,
2013-04-29 15:00:00,66.9,57.6,29.90,South,186,9.0,9.0,72,0.00,,SKC,0.01,VWS V14.01,2013-04-29 19:00:00,
2013-04-29 15:02:00,66.9,57.6,29.90,SSW,199,8.0,8.0,72,0.00,,SKC,0.01,VWS V14.01,2013-04-29 19:02:00,
2013-04-29 15:07:00,67.0,57.7,29.90,SSE,165,3.0,11.0,72,0.00,,SKC,0.01,VWS V14.01,2013-04-29 19:07:00,
2013-04-29 15:12:00,66.6,57.3,29.90,South,188,7.0,7.0,72,0.00,,SKC,0.01,VWS V14.01,2013-04-29 19:12:00,
2013-04-29 15:17:00,66.5,56.4,29.90,SW,228,6.0,10.0,70,0.00,,SKC,0.01,VWS V14.01,2013-04-29 19:17:00,
2013-04-29 15:22:00,66.9,57.2,29.90,South,183,2.0,6.0,71,0.00,,SKC,0.01,VWS V14.01,2013-04-29 19:22:00,
2013-04-29 15:28:00,66.6,56.9,29.90,WSW,246,7.0,7.0,71,0.00,,SKC,0.01,VWS V14.01,2013-04-29 19:28:00,
2013-04-29 15:30:00,67.0,57.3,29.90,SW,218,6.0,7.0,71,0.00,,SKC,0.01,VWS V14.01,2013-04-29 19:30:00,
2013-04-29 15:33:00,67.0,56.5,29.90,SSW,212,7.0,7.0,69,0.00,,SKC,0.01,VWS V14.01,2013-04-29 19:33:00,
2013-04-29 15:38:00,66.9,57.2,29.90,WSW,244,5.0,7.0,71,0.00,,SKC,0.01,VWS V14.01,2013-04-29 19:38:00,
2013-04-29 15:43:00,67.1,57.0,29.90,SW,230,7.0,9.0,70,0.00,,SKC,0.01,VWS V14.01,2013-04-29 19:43:00,
2013-04-29 15:48:00,67.4,56.9,29.90,SSW,196,7.0,7.0,69,0.00,,SKC,0.01,VWS V14.01,2013-04-29 19:48:00,
2013-04-29 15:53:00,67.4,55.2,29.89,SW,234,6.0,10.0,65,0.00,,SKC,0.01,VWS V14.01,2013-04-29 19:53:00,
2013-04-29 15:58:00,67.6,56.7,29.89,SSW,211,8.0,10.0,68,0.00,,SKC,0.01,VWS V14.01,2013-04-29 19:58:00,
2013-04-29 16:00:00,68.4,57.8,29.89,South,188,4.0,11.0,69,0.00,,SKC,0.01,VWS V14.01,2013-04-29 20:00:00,
2013-04-29 16:03:00,68.4,57.8,29.89,South,187,6.0,11.0,69,0.00,,SKC,0.01,VWS V14.01,2013-04-29 20:03:00,
2013-04-29 16:08:00,67.4,56.5,29.89,South,186,10.0,10.0,68,0.00,,SKC,0.01,VWS V14.01,2013-04-29 20:08:00,
2013-04-29 16:13:00,66.9,57.6,29.89,SSW,193,6.0,12.0,72,0.00,,SKC,0.01,VWS V14.01,2013-04-29 20:13:00,
2013-04-29 16:18:00,66.6,56.5,29.89,SSW,196,8.0,14.0,70,0.00,,SKC,0.01,VWS V14.01,2013-04-29 20:18:00,
2013-04-29 16:23:00,66.7,57.0,29.89,South,184,7.0,11.0,71,0.00,,SKC,0.01,VWS V14.01,2013-04-29 20:23:00,
2013-04-29 16:28:00,66.9,56.8,29.89,South,190,5.0,10.0,70,0.00,,SKC,0.01,VWS V14.01,2013-04-29 20:28:00,
2013-04-29 16:30:00,66.8,56.7,29.88,SSW,211,7.0,11.0,70,0.00,,SKC,0.01,VWS V14.01,2013-04-29 20:30:00,
2013-04-29 16:33:00,66.8,56.7,29.88,WSW,239,8.0,11.0,70,0.00,,SKC,0.01,VWS V14.01,2013-04-29 20:33:00,
2013-04-29 16:38:00,67.4,57.3,29.88,South,186,7.0,13.0,70,0.00,,SKC,0.01,VWS V14.01,2013-04-29 20:38:00,
2013-04-29 16:43:00,67.4,57.7,29.89,SSW,193,7.0,11.0,71,0.00,,SKC,0.01,VWS V14.01,2013-04-29 20:43:00,
2013-04-29 16:48:00,67.2,57.5,29.89,SSW,207,7.0,12.0,71,0.00,,SKC,0.01,VWS V14.01,2013-04-29 20:48:00,
2013-04-29 16:53:00,66.8,57.1,29.88,SSW,198,8.0,11.0,71,0.00,,SKC,0.01,VWS V14.01,2013-04-29 20:53:00,
2013-04-29 16:58:00,67.0,57.3,29.88,SW,222,7.0,11.0,71,0.00,,SKC,0.01,VWS V14.01,2013-04-29 20:58:00,
2013-04-29 17:00:00,66.7,57.0,29.89,South,173,7.0,9.0,71,0.00,,SKC,0.01,VWS V14.01,2013-04-29 21:00:00,
2013-04-29 17:03:00,66.7,56.6,29.89,SSW,196,10.0,10.0,70,0.00,,SKC,0.01,VWS V14.01,2013-04-29 21:03:00,
2013-04-29 17:08:00,66.6,56.5,29.89,SSW,212,10.0,14.0,70,0.00,,SKC,0.01,VWS V14.01,2013-04-29 21:08:00,
2013-04-29 17:13:00,66.7,56.2,29.88,South,184,8.0,10.0,69,0.00,,SKC,0.01,VWS V14.01,2013-04-29 21:13:00,
2013-04-29 17:18:00,66.9,56.4,29.88,WSW,247,4.0,8.0,69,0.00,,SKC,0.01,VWS V14.01,2013-04-29 21:18:00,
2013-04-29 17:23:00,67.1,56.2,29.89,SSW,196,7.0,11.0,68,0.00,,SKC,0.01,VWS V14.01,2013-04-29 21:23:00,
2013-04-29 17:28:00,67.2,56.7,29.89,South,187,5.0,8.0,69,0.00,,SKC,0.01,VWS V14.01,2013-04-29 21:28:00,
2013-04-29 17:30:00,67.2,56.7,29.89,SW,225,6.0,11.0,69,0.00,,SKC,0.01,VWS V14.01,2013-04-29 21:30:00,
2013-04-29 17:33:00,67.2,56.7,29.88,SW,226,3.0,12.0,69,0.00,,SKC,0.01,VWS V14.01,2013-04-29 21:33:00,
2013-04-29 17:38:00,67.5,57.0,29.88,SW,225,9.0,9.0,69,0.00,,SKC,0.01,VWS V14.01,2013-04-29 21:38:00,
2013-04-29 17:44:00,67.6,56.3,29.88,South,187,5.0,10.0,67,0.00,,SKC,0.01,VWS V14.01,2013-04-29 21:44:00,
2013-04-29 17:49:00,67.4,55.7,29.88,SW,229,9.0,10.0,66,0.00,,SKC,0.01,VWS V14.01,2013-04-29 21:49:00,
2013-04-29 17:54:00,67.4,56.5,29.89,SSW,193,6.0,11.0,68,0.00,,SKC,0.01,VWS V14.01,2013-04-29 21:54:00,
2013-04-29 17:59:00,67.3,56.8,29.89,South,188,7.0,10.0,69,0.00,,SKC,0.01,VWS V14.01,2013-04-29 21:59:00,
2013-04-29 18:00:00,67.2,56.7,29.89,SSW,204,9.0,12.0,69,0.00,,SKC,0.01,VWS V14.01,2013-04-29 22:00:00,
2013-04-29 18:04:00,67.1,56.2,29.89,SSW,207,5.0,12.0,68,0.00,,SKC,0.01,VWS V14.01,2013-04-29 22:04:00,
2013-04-29 18:09:00,67.2,56.3,29.89,SSW,211,7.0,8.0,68,0.00,,SKC,0.01,VWS V14.01,2013-04-29 22:09:00,
2013-04-29 18:14:00,67.3,56.8,29.89,SW,217,9.0,10.0,69,0.00,,SKC,0.01,VWS V14.01,2013-04-29 22:14:00,
2013-04-29 18:19:00,67.4,56.9,29.89,South,190,5.0,6.0,69,0.00,,SKC,0.01,VWS V14.01,2013-04-29 22:19:00,
2013-04-29 18:24:00,67.2,57.1,29.88,SSW,194,9.0,9.0,70,0.00,,SKC,0.01,VWS V14.01,2013-04-29 22:24:00,
2013-04-29 18:29:00,67.2,56.7,29.88,South,179,3.0,11.0,69,0.00,,SKC,0.01,VWS V14.01,2013-04-29 22:29:00,
2013-04-29 18:30:00,66.9,56.0,29.88,SSW,203,10.0,16.0,68,0.00,,SKC,0.01,VWS V14.01,2013-04-29 22:30:00,
2013-04-29 18:34:00,66.9,56.0,29.88,South,180,8.0,16.0,68,0.00,,SKC,0.01,VWS V14.01,2013-04-29 22:34:00,
2013-04-29 18:39:00,66.9,56.8,29.88,SSW,204,8.0,10.0,70,0.00,,SKC,0.01,VWS V14.01,2013-04-29 22:39:00,
2013-04-29 18:44:00,66.9,56.4,29.88,SW,235,7.0,9.0,69,0.00,,SKC,0.01,VWS V14.01,2013-04-29 22:44:00,
2013-04-29 18:49:00,66.9,56.0,29.88,SSW,192,8.0,12.0,68,0.00,,SKC,0.01,VWS V14.01,2013-04-29 22:49:00,
2013-04-29 18:54:00,66.8,55.9,29.88,South,191,6.0,11.0,68,0.00,,SKC,0.01,VWS V14.01,2013-04-29 22:54:00,
2013-04-29 18:59:00,66.7,56.2,29.88,SSW,211,6.0,11.0,69,0.00,,SKC,0.01,VWS V14.01,2013-04-29 22:59:00,
2013-04-29 19:00:00,66.6,56.9,29.88,South,180,2.0,9.0,71,0.00,,SKC,0.01,VWS V14.01,2013-04-29 23:00:00,
2013-04-29 19:04:00,66.5,56.8,29.88,South,173,6.0,9.0,71,0.00,,SKC,0.01,VWS V14.01,2013-04-29 23:04:00,
2013-04-29 19:09:00,66.3,56.6,29.88,South,180,4.0,9.0,71,0.00,,SKC,0.01,VWS V14.01,2013-04-29 23:09:00,
2013-04-29 19:14:00,66.1,56.4,29.88,South,173,3.0,10.0,71,0.00,,SKC,0.01,VWS V14.01,2013-04-29 23:14:00,
2013-04-29 19:19:00,65.7,56.8,29.88,SSW,194,7.0,10.0,73,0.00,,SKC,0.01,VWS V14.01,2013-04-29 23:19:00,
2013-04-29 19:24:00,65.7,55.7,29.88,South,186,12.0,12.0,70,0.00,,SKC,0.01,VWS V14.01,2013-04-29 23:24:00,
2013-04-29 19:29:00,65.7,56.0,29.88,SSW,198,7.0,8.0,71,0.00,,SKC,0.01,VWS V14.01,2013-04-29 23:29:00,
2013-04-29 19:30:00,65.6,56.3,29.88,South,190,7.0,11.0,72,0.00,,SKC,0.01,VWS V14.01,2013-04-29 23:30:00,
2013-04-29 19:34:00,65.6,56.3,29.88,South,177,8.0,10.0,72,0.00,,SKC,0.01,VWS V14.01,2013-04-29 23:34:00,
2013-04-29 19:39:00,65.3,56.8,29.88,South,184,5.0,11.0,74,0.00,,SKC,0.01,VWS V14.01,2013-04-29 23:39:00,
2013-04-29 19:44:00,65.1,56.6,29.88,SSW,202,5.0,8.0,74,0.00,,SKC,0.01,VWS V14.01,2013-04-29 23:44:00,
2013-04-29 19:49:00,64.9,56.0,29.88,SSW,199,6.0,8.0,73,0.00,,SKC,0.01,VWS V14.01,2013-04-29 23:49:00,
2013-04-29 19:54:00,64.8,55.6,29.88,South,184,5.0,9.0,72,0.00,,SKC,0.01,VWS V14.01,2013-04-29 23:54:00,
2013-04-29 19:59:00,64.7,55.5,29.88,SSW,203,6.0,9.0,72,0.00,,SKC,0.01,VWS V14.01,2013-04-29 23:59:00,
2013-04-29 20:00:00,64.6,55.4,29.89,South,178,2.0,12.0,72,0.00,,SKC,0.01,VWS V14.01,2013-04-30 00:00:00,
2013-04-29 20:04:00,64.5,55.3,29.89,South,187,8.0,8.0,72,0.00,,SKC,0.01,VWS V14.01,2013-04-30 00:04:00,
2013-04-29 20:09:00,64.3,55.5,29.89,South,190,9.0,9.0,73,0.00,,SKC,0.01,VWS V14.01,2013-04-30 00:09:00,
2013-04-29 20:14:00,64.1,55.3,29.89,SSW,196,4.0,5.0,73,0.00,,SKC,0.01,VWS V14.01,2013-04-30 00:14:00,
2013-04-29 20:19:00,63.9,55.5,29.89,SSW,196,4.0,5.0,74,0.00,,SKC,0.01,VWS V14.01,2013-04-30 00:19:00,
2013-04-29 20:24:00,63.2,55.9,29.88,South,177,0.0,1.0,77,0.00,,SKC,0.01,VWS V14.01,2013-04-30 00:24:00,
2013-04-29 20:29:00,62.2,56.0,29.88,South,175,2.0,2.0,80,0.00,,SKC,0.01,VWS V14.01,2013-04-30 00:29:00,
2013-04-29 20:30:00,61.7,55.8,29.88,SSE,163,2.0,2.0,81,0.00,,SKC,0.01,VWS V14.01,2013-04-30 00:30:00,
2013-04-29 20:34:00,61.6,55.7,29.88,SSE,157,0.0,1.0,81,0.00,,SKC,0.01,VWS V14.01,2013-04-30 00:34:00,
2013-04-29 20:39:00,61.0,55.5,29.89,SSE,163,0.0,1.0,82,0.00,,SKC,0.01,VWS V14.01,2013-04-30 00:39:00,
2013-04-29 20:44:00,60.9,55.4,29.88,South,180,1.0,4.0,82,0.00,,SKC,0.01,VWS V14.01,2013-04-30 00:44:00,
2013-04-29 20:50:00,60.5,55.3,29.89,South,175,0.0,1.0,83,0.00,,SKC,0.01,VWS V14.01,2013-04-30 00:50:00,
2013-04-29 20:55:00,60.1,55.3,29.88,South,174,0.0,1.0,84,0.00,,SKC,0.01,VWS V14.01,2013-04-30 00:55:00,
2013-04-29 21:00:00,59.7,54.9,29.88,SSE,148,4.0,4.0,84,0.00,,SKC,0.01,VWS V14.01,2013-04-30 01:00:00,
2013-04-29 21:05:00,59.5,54.7,29.88,SSE,148,2.0,4.0,84,0.00,,SKC,0.01,VWS V14.01,2013-04-30 01:05:00,
2013-04-29 21:10:00,59.2,54.7,29.88,SSE,157,1.0,4.0,85,0.00,,SKC,0.01,VWS V14.01,2013-04-30 01:10:00,
2013-04-29 21:15:00,59.0,54.5,29.88,SSE,159,2.0,2.0,85,0.00,,SKC,0.01,VWS V14.01,2013-04-30 01:15:00,
2013-04-29 21:20:00,59.0,54.5,29.89,SE,142,3.0,3.0,85,0.00,,SKC,0.01,VWS V14.01,2013-04-30 01:20:00,
2013-04-29 21:25:00,58.5,54.3,29.89,SSE,153,0.0,1.0,86,0.00,,SKC,0.01,VWS V14.01,2013-04-30 01:25:00,
2013-04-29 21:30:00,58.4,54.2,29.90,SSE,163,0.0,1.0,86,0.00,,SKC,0.01,VWS V14.01,2013-04-30 01:30:00,
2013-04-29 21:35:00,58.3,54.1,29.90,South,170,1.0,3.0,86,0.00,,SKC,0.01,VWS V14.01,2013-04-30 01:35:00,
2013-04-29 21:49:00,58.3,54.0,29.90,SSE,166,2.0,3.0,86,0.00,,,0.01,weatherlink.com 1.10,2013-04-30 01:49:00,
2013-04-29 22:00:00,57.8,54.0,29.91,South,180,1.0,4.0,87,0.00,,SKC,0.01,VWS V14.01,2013-04-30 02:00:00,
2013-04-29 22:04:00,57.8,54.0,29.91,South,171,0.0,4.0,87,0.00,,,0.01,weatherlink.com 1.10,2013-04-30 02:04:00,
2013-04-29 22:19:00,57.2,54.0,29.91,SSE,157,1.0,3.0,88,0.00,,,0.01,weatherlink.com 1.10,2013-04-30 02:19:00,
2013-04-29 22:30:00,56.7,53.5,29.91,SSE,158,1.0,4.0,89,0.00,,SKC,0.01,VWS V14.01,2013-04-30 02:30:00,
2013-04-29 22:34:00,56.7,54.0,29.91,SSE,152,1.0,4.0,89,0.00,,,0.01,weatherlink.com 1.10,2013-04-30 02:34:00,
2013-04-29 22:49:00,56.7,54.0,29.92,SSE,163,0.0,1.0,89,0.00,,,0.01,weatherlink.com 1.10,2013-04-30 02:49:00,
2013-04-29 23:00:00,56.3,52.8,29.92,SSE,158,1.0,3.0,88,0.00,,SKC,0.01,VWS V14.01,2013-04-30 03:00:00,
2013-04-29 23:04:00,56.3,53.0,29.91,SSE,161,1.0,2.0,88,0.00,,,0.01,weatherlink.com 1.10,2013-04-30 03:04:00,
2013-04-29 23:19:00,55.1,52.0,29.91,SSE,155,1.0,3.0,89,0.00,,,0.01,weatherlink.com 1.10,2013-04-30 03:19:00,
2013-04-29 23:30:00,54.8,51.6,29.91,SSE,158,1.0,3.0,89,0.00,,SKC,0.01,VWS V14.01,2013-04-30 03:30:00,
2013-04-29 23:34:00,54.7,52.0,29.91,SSE,147,1.0,3.0,89,0.00,,,0.01,weatherlink.com 1.10,2013-04-30 03:34:00,
2013-04-29 23:49:00,54.2,51.0,29.91,SSE,153,1.0,4.0,90,0.00,,,0.01,weatherlink.com 1.10,2013-04-30 03:49:00,